Weather History for Palacios, TX

Change the Weather History Date:

Friday, October 14, 2011

  Actual Average Record
Temperature  
Mean Temperature 68 °F -  
Max Temperature 84 °F 81 °F 95 °F (1954)
Min Temperature 55 °F 62 °F 46 °F (1944)
Cooling Degree Days 4    
Growing Degree Days 18 (Base 50)    
Moisture  
Dew Point 56 °F    
Average Humidity 62    
Maximum Humidity 90    
Minimum Humidity 35    
Precipitation  
Precipitation 0.00 in - - ()
Sea Level Pressure  
Sea Level Pressure 29.96 in    
Wind  
Wind Speed 6 mph (East)    
Max Wind Speed 10 mph    
Max Gust Speed -    
Visibility 10 miles    
Events      
Averages and records for this station are not official NWS values.
T = Trace of Precipitation, MM = Missing Value Source: NWS Daily Summary

Daily Weather History Graph

Daily Weather History Graph

Search for Another Location

Airport:

Trip Planner

Search our weather history database for the weather conditions in past years. The results will help you decide how hot, cold, wet, or windy it might be!

Date:

Astronomy

Oct. 14, 2011 Rise Set
Actual Time 7:25 AM CDT 6:56 PM CDT
Civil Twilight 7:01 AM CDT 7:20 PM CDT
Nautical Twilight 6:33 AM CDT 7:47 PM CDT
Astronomical Twilight 6:06 AM CDT 8:15 PM CDT
Moon 8:28 PM CDT (10/14) 9:38 AM CDT (10/14)
Length of Visible Light 12h 18m
Length of Day
11h 31m
Waning Gibbous, 94% of the Moon is Illuminated
Oct 14
Waning Gibbous
Oct 19
Last Quarter
Oct 26
New
Nov 2
First Quarter
Nov 10
Full

Hourly Weather History & Observations

Time (CDT) Temp. Heat Index Dew Point Humidity Pressure Visibility Wind Dir Wind Speed Gust Speed Precip Events Conditions
12:53 AM 64.0 °F - 54.0 °F 70% 29.91 in 10.0 mi NE 6.9 mph - N/A   Clear
1:53 AM 62.1 °F - 52.0 °F 70% 29.92 in 10.0 mi NE 5.8 mph - N/A   Clear
2:53 AM 59.0 °F - 53.1 °F 81% 29.93 in 10.0 mi NNE 4.6 mph - N/A   Clear
3:53 AM 57.9 °F - 53.1 °F 84% 29.93 in 10.0 mi NE 5.8 mph - N/A   Clear
6:53 AM 55.9 °F - 51.1 °F 84% 29.95 in 10.0 mi NE 5.8 mph - N/A   Clear
7:53 AM 55.4 °F - 51.8 °F 88% 29.96 in 10.0 mi NNE 4.6 mph - N/A   Clear
8:53 AM 64.0 °F - 55.9 °F 75% 29.98 in 10.0 mi NE 5.8 mph - N/A   Clear
9:53 AM 72.0 °F - 57.0 °F 59% 30.00 in 10.0 mi ENE 6.9 mph - N/A   Clear
10:53 AM 78.1 °F - 57.9 °F 50% 30.00 in 10.0 mi ENE 9.2 mph - N/A   Clear
11:53 AM 82.0 °F 81.6 °F 55.9 °F 41% 29.99 in 10.0 mi East 6.9 mph - N/A   Clear
12:53 PM 82.9 °F 81.9 °F 54.0 °F 37% 29.98 in 10.0 mi SE 6.9 mph - N/A   Clear
1:53 PM 82.4 °F - 51.8 °F 35% 29.96 in 10.0 mi South 6.9 mph - N/A   Clear
2:53 PM 82.9 °F 82.0 °F 55.0 °F 38% 29.94 in 10.0 mi South 8.1 mph - N/A   Clear
3:53 PM 82.0 °F 81.4 °F 55.0 °F 39% 29.93 in 10.0 mi South 9.2 mph - N/A   Clear
4:53 PM 82.0 °F 81.4 °F 55.0 °F 39% 29.93 in 10.0 mi SSE 10.4 mph - N/A   Clear
5:53 PM 80.1 °F 80.2 °F 55.9 °F 43% 29.93 in 10.0 mi South 6.9 mph - N/A   Clear
6:53 PM 73.9 °F - 60.1 °F 62% 29.94 in 10.0 mi SE 6.9 mph - N/A   Clear
7:53 PM 70.0 °F - 60.1 °F 71% 29.96 in 10.0 mi SE 6.9 mph - N/A   Clear
8:53 PM 71.1 °F - 60.1 °F 68% 29.96 in 10.0 mi ESE 5.8 mph - N/A   Clear
9:53 PM 70.0 °F - 63.0 °F 78% 29.98 in 10.0 mi ESE 4.6 mph - N/A   Clear
10:53 PM 66.0 °F - 63.0 °F 90% 29.99 in 10.0 mi Calm Calm - N/A   Clear